Millville, NJ

10:16 PM EST on December 03, 2016 (GMT -0500)
Millville Municipal

Weather History for KMIV - December, 2013

Change the Weather History Date:

Tuesday, December 17, 2013

  Actual Average Record
Temperature  
Mean Temperature 32 °F -  
Max Temperature 37 °F 44 °F 63 °F (1984)
Min Temperature 28 °F 27 °F 5 °F (1951)
Degree Days  
Heating Degree Days 32    
Moisture  
Dew Point 25 °F    
Average Humidity 77    
Maximum Humidity 96    
Minimum Humidity 49    
Precipitation  
Precipitation 0.05 in - - ()
Sea Level Pressure  
Sea Level Pressure 30.04 in    
Wind  
Wind Speed 6 mph (NNE)    
Max Wind Speed 12 mph    
Max Gust Speed -    
Visibility 8 miles    
Events Rain    
Averages and records for this station are not official NWS values.
T = Trace of Precipitation, MM = Missing Value Source: NWS Daily Summary

Daily Weather History Graph

Daily Weather History Graph

Search for Another Location

Airport or City:

Trip Planner

Search our weather history database for the weather conditions in past years. The results will help you decide how hot, cold, wet, or windy it might be!

Date:

Astronomy

Dec. 17, 2013 Rise Set
Actual Time 7:14 AM EST 4:38 PM EST
Civil Twilight 6:44 AM EST 5:08 PM EST
Nautical Twilight 6:10 AM EST 5:42 PM EST
Astronomical Twilight 5:37 AM EST 6:15 PM EST
Moon 5:16 PM EST (12/17) 7:09 AM EST (12/17)
Length of Visible Light 10h 24m
Length of Day
9h 24m
Full, 100% of the Moon is Illuminated
Dec 17
Full
Dec 25
Last Quarter
Jan 1
New
Jan 7
First Quarter
Jan 15
Full

Hourly Weather History & Observations

Time (EST) Temp. Windchill Dew Point Humidity Pressure Visibility Wind Dir Wind Speed Gust Speed Precip Events Conditions
12:54 AM 28.0 °F 24.2 °F 14.0 °F 56% 30.20 in 10.0 mi East 3.5 mph - N/A   Overcast
1:54 AM 28.0 °F 20.8 °F 12.9 °F 53% 30.20 in 10.0 mi East 6.9 mph - N/A   Overcast
2:15 AM 28.0 °F 21.7 °F 12.9 °F 53% 30.20 in 10.0 mi ENE 5.8 mph - N/A   Overcast
2:54 AM 28.9 °F 21.1 °F 12.0 °F 49% 30.19 in 10.0 mi East 8.1 mph - N/A   Overcast
3:54 AM 28.0 °F 20.0 °F 12.9 °F 53% 30.17 in 10.0 mi East 8.1 mph - N/A   Overcast
4:54 AM 28.9 °F 21.9 °F 12.9 °F 51% 30.14 in 10.0 mi East 6.9 mph - N/A   Overcast
5:33 AM 28.9 °F 21.9 °F 14.0 °F 54% 30.14 in 10.0 mi ENE 6.9 mph - N/A   Overcast
5:54 AM 28.9 °F 22.8 °F 16.0 °F 58% 30.15 in 10.0 mi NE 5.8 mph - N/A   Overcast
6:54 AM 30.0 °F 23.2 °F 17.1 °F 59% 30.13 in 10.0 mi East 6.9 mph - N/A   Overcast
7:54 AM 30.0 °F 23.2 °F 19.0 °F 64% 30.12 in 10.0 mi NE 6.9 mph - N/A   Overcast
8:22 AM 30.0 °F 23.2 °F 19.9 °F 66% 30.09 in 10.0 mi East 6.9 mph - N/A   Scattered Clouds
8:54 AM 33.1 °F 26.9 °F 21.9 °F 64% 30.06 in 10.0 mi NE 6.9 mph - N/A   Partly Cloudy
9:22 AM 34.0 °F 29.8 °F 24.1 °F 67% 30.08 in 10.0 mi NNE 4.6 mph - N/A   Mostly Cloudy
9:54 AM 34.0 °F 28.8 °F 27.0 °F 75% 30.07 in 7.0 mi East 5.8 mph - 0.00 in Rain Rain
10:54 AM 34.0 °F 28.8 °F 30.0 °F 85% 30.00 in 10.0 mi East 5.8 mph - 0.02 in Rain Light Rain
11:54 AM 37.0 °F - 33.1 °F 86% 29.98 in 10.0 mi Calm Calm - 0.00 in   Overcast
12:54 PM 37.9 °F 35.5 °F 35.1 °F 89% 29.96 in 10.0 mi NW 3.5 mph - 0.00 in Rain Light Rain
1:54 PM 37.9 °F 35.5 °F 36.0 °F 93% 29.94 in 7.0 mi WNW 3.5 mph - 0.01 in Rain Light Rain
2:54 PM 37.9 °F 34.4 °F 36.0 °F 93% 29.96 in 5.0 mi West 4.6 mph - 0.01 in Rain Light Rain
3:54 PM 37.0 °F 29.8 °F 35.1 °F 93% 29.96 in 6.0 mi NW 10.4 mph - 0.01 in   Overcast
4:08 PM 36.0 °F 28.0 °F 34.0 °F 93% 29.98 in 7.0 mi WNW 11.5 mph - N/A   Overcast
4:54 PM 35.1 °F - 34.0 °F 96% 29.96 in 6.0 mi Calm Calm - N/A   Overcast
5:54 PM 34.0 °F 29.8 °F 32.0 °F 92% 29.97 in 7.0 mi NW 4.6 mph - N/A   Mostly Cloudy
6:54 PM 33.1 °F 28.7 °F 32.0 °F 96% 29.98 in 6.0 mi NNW 4.6 mph - N/A   Mostly Cloudy
7:16 PM 33.1 °F 28.7 °F 32.0 °F 96% 29.98 in 5.0 mi NW 4.6 mph - N/A   Overcast
7:31 PM 33.1 °F 30.0 °F 32.0 °F 96% 29.98 in 5.0 mi North 3.5 mph - N/A   Overcast
7:42 PM 33.1 °F 30.0 °F 32.0 °F 96% 29.98 in 5.0 mi NW 3.5 mph - N/A   Overcast
7:54 PM 33.1 °F 27.7 °F 30.9 °F 92% 29.98 in 5.0 mi NNW 5.8 mph - N/A   Overcast
8:54 PM 32.0 °F 27.5 °F 30.0 °F 92% 29.97 in 7.0 mi Variable 4.6 mph - N/A   Overcast
9:54 PM 32.0 °F 25.6 °F 28.9 °F 88% 29.97 in 7.0 mi North 6.9 mph - N/A   Overcast
10:54 PM 30.9 °F 24.3 °F 28.0 °F 89% 29.95 in 7.0 mi North 6.9 mph - N/A   Overcast
11:54 PM 30.0 °F 23.2 °F 27.0 °F 88% 29.94 in 8.0 mi North 6.9 mph - N/A   Overcast